Regional Weather Roundup
Issued by NWS Charleston, WV

Home | Current Version | Previous Version | Text Only | Print | Product List | Glossary On
Versions: 1 2 3 4 5 6 7 8 9 10 11 12 13 14 15 16 17 18 19 20 21 22 23 24 25 26 27 28 29 30 31 32 33 34 35 36 37 38 39 40 41 42 43 44 45 46 47 48 49 50
000
ASUS41 KRLX 031210
RWRRLX
West Virginia Regional Weather Roundup
National Weather Service Charleston WV
700 AM EST TUE MAR 03 2015

Note: "fair" indicates few or no clouds below 12,000 feet with no
significant weather and/or obstructions to visibility.

WVZ003-031300-
Northern Panhandle of West Virginia

CITY           SKY/WX    TMP DP  RH WIND       PRES   REMARKS
WHEELING       CLOUDY    23  14  68 E8        30.21F
$$

WVZ009-031300-
Northwest West Virginia

CITY           SKY/WX    TMP DP  RH WIND       PRES   REMARKS
PARKERSBURG    CLOUDY    28  18  66 E6        30.23F
$$

WVZ006-031300-
Western West Virginia

CITY           SKY/WX    TMP DP  RH WIND       PRES   REMARKS
HUNTINGTON     MIX PCPN  30  22  72 CALM      30.17F
$$

WVZ015-031300-
West Central West Virginia

CITY           SKY/WX    TMP DP  RH WIND       PRES   REMARKS
CHARLESTON     CLOUDY    31  21  66 CALM      30.17F
$$

WVZ022-031-031300-
North Central West Virginia

CITY           SKY/WX    TMP DP  RH WIND       PRES   REMARKS
CLARKSBURG     CLOUDY    26  21  81 NE7       30.22S
MORGANTOWN     CLOUDY    27  14  58 CALM      30.23F
$$

WVZ025-035-042-045-031300-
Southern West Virginia

CITY           SKY/WX    TMP DP  RH WIND       PRES   REMARKS
BECKLEY        MOCLDY    33  18  53 SE12G21   30.16F
LOGAN          CLOUDY    36  21  55 CALM      30.11F
BLUEFIELD      CLOUDY    37  18  46 S10G22    30.17F
LEWISBURG      MOCLDY    29  20  67 N7        30.26S
$$

WVZ047-031300-
Northern Mountains of West Virginia

CITY           SKY/WX    TMP DP  RH WIND       PRES   REMARKS
ELKINS         CLOUDY    26  22  84 CALM      30.20S
$$

WVZ052-031300-
Eastern Panhandle of West Virginia

CITY           SKY/WX    TMP DP  RH WIND       PRES   REMARKS
MARTINSBURG    CLOUDY    27  16  63 CALM      30.38F
PETERSBURG     CLOUDY    28  18  67 CALM      30.34S
$$


USA.gov is the U.S. government's official web portal to all federal, state and local government web resources and services.